119  
ASUS44 KJAN 221810  
RWRMS  
 
MISSISSIPPI HOURLY WEATHER ROUNDUP  
NATIONAL WEATHER SERVICE JACKSON MS  
100 PM CDT MON JUL 22 2019  
 
NOTE: "FAIR: INDICATES FEW OR NO CLOUDS BELOW 12,000 FEET WITH NO  
SIGNIFICANT WEATHER AND/OR S TO VISIBILITY
.  
 
MSZ001>002-007>008-010>013-018>021-025>028-034>036-221900-  
NORTHWEST MISSISSIPPI  
 
CITY SKY/WX TMP DP RH WIND PRES REMARKS
 
BATESVILLE CLOUDY 82 77 83 W6 29.95F HX 91  
CLARKSDALE N/A 86 81 84 SW8G15 29.94F HX 102  
CLEVELAND FAIR 88 80 76 W6 29.95F HX 103  
GREENWOOD FAIR 87 74 64 CALM 29.95F HX 95  
6HR MIN TEMP: 73; 6HR MAX TEMP: 87;  
 
GREENVILLE FAIR 88 77 69 W6 29.95S HX 100  
6HR MIN TEMP: 75; 6HR MAX TEMP: 88;  
 
OLIVE BRANCH CLOUDY 82 75 78 SW12 29.94F  
OXFORD CLOUDY 84 73 70 S8 29.97F HX 91  
TUNICA N/A 86 75 70 SW8 29.94F HX 95  
WINONA MOCLDY 85 74 70 W6 29.97F HX 92  

 
 
MSZ003>006-009-014>017-022>024-029>033-037>039-221900-  
NORTHEAST MISSISSIPPI  
 
CITY SKY/WX TMP DP RH WIND PRES REMARKS
 
ABERDEEN FAIR 86 68 54 VRB6 29.98F  
COLUMBUS AFB PTSUNNY 86 73 66 CALM 29.96F HX 93  
6HR MIN TEMP: 74; 6HR MAX TEMP: 86;  
 
CORINTH MOCLDY 84 73 70 SW8 29.94F HX 91  
GOLDN TRIANGLE FAIR 85 75 72 S7 29.98F HX 93  
STARKVILLE FAIR 84 72 65 S5 29.98F  
TUPELO FAIR 86 74 67 SW6 29.95F HX 94  
6HR MIN TEMP: 76; 6HR MAX TEMP: 87;  
 

 
 
MSZ040-058-221900-  
CENTRAL MISSISSIPPI  
 
CITY SKY/WX TMP DP RH WIND PRES REMARKS
 
JACKSON INTL PTSUNNY 87 72 60 NW5 29.98F HX 93  
6HR MIN TEMP: 74; 6HR MAX TEMP: 87;  
 
JACKSON HAWKNS FAIR 87 75 67 VRB3 29.99F HX 96  
6HR MIN TEMP: 73; 6HR MAX TEMP: 87;  
 
MADISON FAIR 86 75 70 NW7 29.98F HX 95  
MERIDIAN KEY FAIR 86 73 65 S6 29.99F HX 93  
6HR MIN TEMP: 74; 6HR MAX TEMP: 87;  
 
MERIDIAN NAS PTSUNNY 85 71 63 SW5 29.99F HX 90  
6HR MIN TEMP: 74; 6HR MAX TEMP: 86;  
 
RAYMOND N/A 86 77 74 CALM 29.98F HX 97  
VICKSBURG VKS PTCLDY 86 75 70 S3 29.98F HX 95  

 
 
MSZ059>079-221900-  
SOUTH MISSISSIPPI  
 
CITY SKY/WX TMP DP RH WIND PRES REMARKS
 
BROOKHAVEN MOCLDY 86 73 66 CALM 30.01F HX 93  
HATTIESBURG FAIR 87 74 64 NE6 30.00F HX 95  
6HR MIN TEMP: 79; 6HR MAX TEMP: 87;  
 
LAUREL PTCLDY 86 72 64 CALM 29.99F HX 92  
MCCOMB PTSUNNY 86 72 62 NW3 29.99F HX 92  
6HR MIN TEMP: 72; 6HR MAX TEMP: 86;  
 
NATCHEZ PTSUNNY 85 75 72 W3 30.00F HX 93  
6HR MIN TEMP: 73; 6HR MAX TEMP: 86;  
 
PINE BELT FAIR 86 74 67 VRB3 30.01F HX 94  
6HR MIN TEMP: 72; 6HR MAX TEMP: 86;  
 

 
 
MSZ080>082-221900-  
COASTAL MISSISSIPPI  
 
CITY SKY/WX TMP DP RH WIND PRES REMARKS
 
BILOXI FAIR 85 74 69 SW12 30.00S HX 93  
6HR MIN TEMP: 75; 6HR MAX TEMP: 85; 6HR PCP: 1.16;  
 
PASCAGOULA FAIR 90 72 55 S8 30.00F HX 97  
6HR MIN TEMP: 76; 6HR MAX TEMP: 91; 6HR PCP: 0.04;  
 
GULFPORT LGT RAIN 80 75 84 S7 30.00S  
6HR MIN TEMP: 75; 6HR MAX TEMP: 86; 6HR PCP: 0.12;  
 

 
 
LAZ007>009-015>016-023>026-221900-  
NORTHEAST LOUISIANA  
 
CITY SKY/WX TMP DP RH WIND PRES REMARKS
 
BASTROP FAIR 88 78 72 SW5 29.98S HX 101  
TALLULAH/VBURG PTSUNNY 86 76 71 CALM 29.97F HX 96  
6HR MIN TEMP: 75; 6HR MAX TEMP: 88;  
 
VIDALIA MOCLDY 85 75 72 SW3 29.98F HX 94  

 
 
 
CLICK HERE TO GO TO PREVIOUS BULLETINS.

The Nexlab MS Page Main Text Page